Location: Houhaj�rvi
(61.2833°N, 23.0000°E)
Time: 11:40:23
(UTC+00:00)

USA 116 - Pass Details

Date: 27 February 2020
Orbit: 405 x 834 km, 97.9° (Epoch: 18 November)

Event Time Altitude Azimuth Distance (km) Brightness Sun altitude
Rises 17:46:50 0° 16° (NNE) 2,650 7.2 -15.2°
Reaches altitude 10° 17:48:50 10° 14° (NNE) 1,816 6.3 -15.4°
Maximum altitude 17:52:44 71° 292° (WNW) 632 4.1 -15.9°
Drops below altitude 10° 17:57:10 10° 208° (SSW) 2,046 6.8 -16.4°
Sets 17:59:31 0° 207° (SSW) 3,021 7.7 -16.7°
